TimeCDT,TemperatureF,Dew PointF,Humidity,Sea Level PressureIn,VisibilityMPH,Wind Direction,Wind SpeedMPH,Gust SpeedMPH,PrecipitationIn,Events,Conditions,WindDirDegrees,DateUTC
12:53 AM,52.0,45.0,77,29.87,10.0,SE,11.5,-,N/A,,Clear,130,2013-09-22 05:53:00
1:53 AM,52.0,45.0,77,29.86,10.0,SE,9.2,-,N/A,,Clear,130,2013-09-22 06:53:00
2:53 AM,52.0,45.0,77,29.85,10.0,SE,11.5,19.6,N/A,,Clear,130,2013-09-22 07:53:00
3:53 AM,51.1,45.0,80,29.83,10.0,SE,10.4,-,N/A,,Clear,130,2013-09-22 08:53:00
4:53 AM,52.0,45.0,77,29.81,10.0,SE,12.7,-,N/A,,Clear,130,2013-09-22 09:53:00
5:53 AM,52.0,45.0,77,29.79,10.0,ESE,12.7,20.7,N/A,,Clear,120,2013-09-22 10:53:00
6:53 AM,53.1,45.0,74,29.77,10.0,ESE,15.0,-,N/A,,Clear,120,2013-09-22 11:53:00
7:53 AM,54.0,45.0,72,29.77,10.0,SE,13.8,20.7,N/A,,Clear,130,2013-09-22 12:53:00
8:53 AM,57.9,46.0,65,29.76,10.0,SE,15.0,24.2,N/A,,Clear,140,2013-09-22 13:53:00
9:53 AM,62.1,46.9,58,29.74,10.0,SE,17.3,25.3,N/A,,Clear,140,2013-09-22 14:53:00
10:53 AM,66.9,48.9,52,29.73,10.0,SE,21.9,29.9,N/A,,Clear,140,2013-09-22 15:53:00
11:53 AM,69.1,50.0,51,29.70,10.0,SSE,19.6,31.1,N/A,,Clear,150,2013-09-22 16:53:00
12:53 PM,73.0,51.1,46,29.68,10.0,SE,20.7,31.1,N/A,,Clear,130,2013-09-22 17:53:00
1:53 PM,75.0,53.1,46,29.65,10.0,SE,24.2,36.8,N/A,,Clear,140,2013-09-22 18:53:00
2:53 PM,77.0,54.0,45,29.63,10.0,SSE,23.0,32.2,N/A,,Clear,150,2013-09-22 19:53:00
3:53 PM,80.1,55.0,42,29.62,10.0,SSE,18.4,29.9,N/A,,Clear,150,2013-09-22 20:53:00
4:53 PM,80.1,54.0,40,29.60,10.0,SE,17.3,39.1,N/A,,Clear,140,2013-09-22 21:53:00
5:53 PM,79.0,54.0,42,29.59,10.0,SE,25.3,38.0,N/A,,Clear,140,2013-09-22 22:53:00
6:53 PM,75.9,54.0,46,29.60,10.0,SE,20.7,31.1,N/A,,Clear,140,2013-09-22 23:53:00
7:53 PM,73.9,54.0,50,29.61,10.0,SE,18.4,27.6,N/A,,Clear,140,2013-09-23 00:53:00
8:53 PM,72.0,54.0,53,29.61,10.0,SE,19.6,27.6,N/A,,Clear,140,2013-09-23 01:53:00
9:53 PM,72.0,53.1,51,29.62,10.0,SSE,18.4,29.9,N/A,,Clear,150,2013-09-23 02:53:00
10:53 PM,71.1,52.0,51,29.63,10.0,SSE,18.4,27.6,N/A,,Clear,150,2013-09-23 03:53:00
11:53 PM,69.1,52.0,54,29.63,10.0,SSE,17.3,28.8,N/A,,Clear,150,2013-09-23 04:53:00